[Iaude] MPEC T150: 2023 TG5 [a=1.63,e=0.36,i=5.2,H=26.7]
    mpec at marsden.cfa.harvard.edu 
    mpec at marsden.cfa.harvard.edu
       
    Wed Oct 11 02:09:06 EDT 2023
    
    
  
M.P.E.C. 2023-T150                             Issued 2023 October 11, 06:07 UT
     The Minor Planet Electronic Circulars contain information on unusual
         minor planets, routine data on comets and natural satellites,
         and occasional editorial announcements.  They are published
    on behalf of Division F of the International Astronomical Union by the
          Minor Planet Center, Smithsonian Astrophysical Observatory,
                          Cambridge, MA 02138, U.S.A.
			  
             Prepared using the Tamkin Foundation Computer Network
                              MPC at CFA.HARVARD.EDU
            URL https://www.minorplanetcenter.net/    ISSN 1523-6714
                                    2023 TG5                                    
Observations:
     K23T05G*1C2023 10 09.35081701 24 37.537+32 40 50.81         21.08GVET150G96
     K23T05G 1C2023 10 09.35643501 24 39.920+32 41 39.05               VET150G96
     K23T05G 1C2023 10 09.36205701 24 42.275+32 42 27.40         20.85GVET150G96
     K23T05G 1C2023 10 09.36768601 24 44.629+32 43 16.43         21.02GVET150G96
     K23T05G KC2023 10 09.44952201 25 19.866+32 54 47.84         21.94GVET150I52
     K23T05G KC2023 10 09.45182501 25 20.845+32 55 06.49         21.16GVET150I52
     K23T05G KC2023 10 09.45412801 25 21.889+32 55 25.21         20.92GVET150I52
     K23T05G KC2023 10 09.45642601 25 22.901+32 55 44.76         21.45GVET150I52
     K23T05G KC2023 10 10.18484501 31 38.946+34 38 10.57         21.34GVET150I52
     K23T05G KC2023 10 10.18801701 31 40.357+34 38 38.29         21.46GVET150I52
     K23T05G KC2023 10 10.19119201 31 41.790+34 39 05.04         21.35GVET150I52
     K23T05G KC2023 10 10.22097201 31 50.09 +34 43 11.1          21.6 VuET150H21
     K23T05G KC2023 10 10.22892301 31 53.48 +34 44 16.7          21.2 VuET150H21
     K23T05G KC2023 10 11.19544001 39 45.73 +36 50 02.5          21.8 VuET150H21
     K23T05G KC2023 10 11.20382501 39 49.25 +36 51 07.0          21.1 VuET150H21
     K23T05G KC2023 10 11.21016301 39 51.92 +36 51 55.0          21.9 VuET150H21
Observer details:
G96 Mt. Lemmon Survey.  Observer K. W. Wierzchos.  Measurers E. C. Beshore, D.
    Fay, J. B. Fazekas, D. C. Fuls, A. R. Gibbs, A. D. Grauer, H. Groeller, J.
    K. Hogan, R. A. Kowalski, S. M. Larson, G. J. Leonard, D. Rankin, R. L.
    Seaman, F. C. Shelly, K. W. Wierzchos.  1.5-m reflector + 10K CCD.
H21 Astronomical Research Observatory, Westfield.  Observer R. Holmes.
    Measurers T. Linder, R. Holmes, L. Horn.  0.81-m f/4.0 astrograph + CCD,
    0.76-m f/3.0 astrograph + CCD.
I52 Steward Observatory, Mt. Lemmon Station.  Observer J. B. Fazekas.
    Measurers E. C. Beshore, D. Fay, J. B. Fazekas, D. C. Fuls, A. R. Gibbs,
    A. D. Grauer, H. Groeller, J. K. Hogan, R. A. Kowalski, S. M. Larson, G.
    J. Leonard, D. Rankin, R. L. Seaman, F. C. Shelly, K. W. Wierzchos.  1.0-m
    prime focus + CCD.
Orbital elements:
2023 TG5                                                 Earth MOID = 0.0433 AU
Epoch 2023 Sept. 13.0 TT = JDT 2460200.5                Veres                   
M 348.33342              (2000.0)            P               Q                  
n   0.47519130     Peri.    9.18097     +0.96915124     -0.24633378             
a   1.6263864      Node     5.10126     +0.21995749     +0.84962693             
e   0.3588587      Incl.    5.22366     +0.11119607     +0.46631936             
P   2.07           H   26.73          G   0.15           U   8                  
Residuals in seconds of arc
231009 G96  0.1+  0.6+    231009 I52  0.0   0.5-    231010 H21  0.2+  0.1-
231009 G96  0.4+  0.2+    231009 I52  0.1-  0.1-    231011 H21  0.1-  0.1-
231009 G96  0.2+  0.1+    231010 I52  0.3-  0.1-    231011 H21  0.0   0.1+
231009 G96  0.0   0.6+    231010 I52  0.1-  0.4+    231011 H21  0.2+  0.2-
231009 I52  0.2+  0.4+    231010 I52  0.4+  0.0
231009 I52  0.3-  0.1-    231010 H21  0.2-  0.1-
Ephemeris:
2023 TG5                 a,e,i = 1.63, 0.36, 5                   q = 1.0427
Date    TT    R. A. (2000) Decl.     Delta      r    Elong.  Phase     V
2023 09 11    22 34 06.5 -34 20 42   0.07973 1.0761   149.1    28.8    22.7
...
2023 09 26    23 41 52.9 -09 03 32   0.04737 1.0492   168.0    11.5    20.9
...
2023 10 04    00 40 37.5 +17 05 50   0.04385 1.0433   166.9    12.5    20.8
...
2023 10 10    01 29 59.0 +34 13 02   0.04998 1.0429   151.2    27.4    21.5
2023 10 11    01 38 06.5 +36 25 36   0.05158 1.0432   149.2    29.3    21.7
2023 10 12    01 46 06.9 +38 26 42   0.05331 1.0436   147.4    31.0    21.8
...
2023 10 18    02 30 09.8 +47 03 38   0.06578 1.0479   140.1    37.6    22.4
...
2023 10 26    03 14 20.7 +52 14 54   0.08586 1.0589   137.2    39.7    23.1
...
2023 11 10    03 55 14.4 +53 42 33   0.1289  1.0944   141.6    34.2    23.9
M. P. C. Staff               (C) Copyright 2023 MPC           M.P.E.C. 2023-T150
    
    
More information about the Iaude
mailing list